,,PA_Meas_PMT16A,,PR_Meas_QMR101_102,,RH_Meas_QMH101,,SR_Meas_QMS101,,TA_Meas_QMH101,,GenWind,,GenWind,
time,status,PA,status,PR,status,RH,status,SR,status,TA,status,DirAvg,status,SpdAvg,
2013-07-20, 00:00:04,VALID,918.301,VALID,0,VALID,91.8774,VALID,0,VALID,18.3784,VALID,308,VALID,0,
2013-07-20, 00:01:04,VALID,918.296,VALID,0,VALID,92.2205,VALID,0,VALID,18.3589,VALID,305,VALID,0,
2013-07-20, 00:02:04,VALID,918.297,VALID,0,VALID,92.9066,VALID,0,VALID,18.4174,VALID,296,VALID,0,
2013-07-20, 00:03:04,VALID,918.313,VALID,0,VALID,90.711,VALID,0,VALID,18.2615,VALID,297,VALID,0,
2013-07-20, 00:04:04,VALID,918.313,VALID,0,VALID,91.4505,VALID,0,VALID,18.242,VALID,301,VALID,0,
2013-07-20, 00:05:04,VALID,918.33,VALID,0,VALID,91.7478,VALID,0,VALID,18.2225,VALID,301,VALID,0,
2013-07-20, 00:06:04,VALID,918.313,VALID,0,VALID,92.655,VALID,0,VALID,18.3004,VALID,301,VALID,0,
2013-07-20, 00:07:04,VALID,918.3,VALID,0,VALID,93.1276,VALID,0,VALID,18.3784,VALID,301,VALID,0,
2013-07-20, 00:08:04,VALID,918.296,VALID,0,VALID,92.3196,VALID,0,VALID,18.3004,VALID,301,VALID,0,
2013-07-20, 00:09:04,VALID,918.272,VALID,0,VALID,92.4644,VALID,0,VALID,18.3199,VALID,301,VALID,0,
2013-07-20, 00:10:04,VALID,918.229,VALID,0,VALID,92.3196,VALID,0,VALID,18.3018,VALID,301,VALID,0,
2013-07-20, 00:11:04,VALID,918.188,VALID,0,VALID,92.007,VALID,0,VALID,18.2225,VALID,310,VALID,0,
2013-07-20, 00:12:04,VALID,918.176,VALID,0,VALID,92.19,VALID,0,VALID,18.164,VALID,334,VALID,0,
2013-07-20, 00:13:04,VALID,918.109,VALID,0,VALID,92.2281,VALID,0,VALID,18.125,VALID,334,VALID,0,
2013-07-20, 00:14:04,VALID,918.12,VALID,0,VALID,93.1505,VALID,0,VALID,18.2225,VALID,319,VALID,0,
2013-07-20, 00:15:04,VALID,918.109,VALID,0,VALID,93.4478,VALID,0,VALID,18.2809,VALID,319,VALID,0,
2013-07-20, 00:16:04,VALID,918.14,VALID,0,VALID,93.8061,VALID,0,VALID,18.3589,VALID,322,VALID,0,
2013-07-20, 00:17:04,VALID,918.165,VALID,0,VALID,93.6003,VALID,0,VALID,18.3993,VALID,321,VALID,0,
2013-07-20, 00:18:04,VALID,918.163,VALID,0,VALID,93.5698,VALID,0,VALID,18.4174,VALID,288,VALID,0,
2013-07-20, 00:19:04,VALID,918.124,VALID,0,VALID,93.5927,VALID,0,VALID,18.5149,VALID,288,VALID,0,
2013-07-20, 00:20:04,VALID,918.104,VALID,0,VALID,93.5088,VALID,0,VALID,18.5149,VALID,288,VALID,0,
2013-07-20, 00:21:04,VALID,918.087,VALID,0,VALID,92.7084,VALID,0,VALID,18.4773,VALID,322,VALID,0,
2013-07-20, 00:22:04,VALID,918.047,VALID,0,VALID,92.4187,VALID,0,VALID,18.4759,VALID,323,VALID,0,
2013-07-20, 00:23:04,VALID,918.05,VALID,0,VALID,91.3666,VALID,0,VALID,18.3589,VALID,323,VALID,0,
2013-07-20, 00:24:04,VALID,918.08,VALID,0,VALID,91.6411,VALID,0,VALID,18.3394,VALID,323,VALID,0,
2013-07-20, 00:25:04,VALID,918.112,VALID,0,VALID,91.8927,VALID,0,VALID,18.3004,VALID,322,VALID,0,
2013-07-20, 00:26:04,VALID,918.078,VALID,0,VALID,92.7617,VALID,0,VALID,18.3784,VALID,321,VALID,0,
2013-07-20, 00:27:04,VALID,918.071,VALID,0,VALID,91.8774,VALID,0,VALID,18.3004,VALID,321,VALID,0,
2013-07-20, 00:28:04,VALID,918.056,VALID,0,VALID,92.533,VALID,0,VALID,18.3004,VALID,321,VALID,0,
2013-07-20, 00:29:04,VALID,918.045,VALID,0,VALID,92.7846,VALID,0,VALID,18.3004,VALID,321,VALID,0,
2013-07-20, 00:30:04,VALID,918.038,VALID,0,VALID,92.2281,VALID,0,VALID,18.2225,VALID,321,VALID,0,
2013-07-20, 00:31:04,VALID,918.024,VALID,0,VALID,92.7084,VALID,0,VALID,18.1835,VALID,321,VALID,0,
2013-07-20, 00:32:04,VALID,918.021,VALID,0,VALID,93.3487,VALID,0,VALID,18.1445,VALID,321,VALID,0,
2013-07-20, 00:33:04,VALID,918,VALID,0,VALID,93.9129,VALID,0,VALID,18.164,VALID,322,VALID,0,
2013-07-20, 00:34:04,VALID,917.968,VALID,0,VALID,94.0196,VALID,0,VALID,18.1459,VALID,321,VALID,0,
2013-07-20, 00:35:04,VALID,917.955,VALID,0,VALID,93.9129,VALID,0,VALID,18.0665,VALID,321,VALID,0,
2013-07-20, 00:36:04,VALID,917.935,VALID,0,VALID,93.9205,VALID,0,VALID,18.008,VALID,321,VALID,0,
2013-07-20, 00:37:04,VALID,917.95,VALID,0,VALID,93.6994,VALID,0,VALID,17.9301,VALID,321,VALID,0,
2013-07-20, 00:38:04,VALID,917.938,VALID,0,VALID,93.4173,VALID,0,VALID,17.8131,VALID,350,VALID,0,
2013-07-20, 00:39:04,VALID,917.912,VALID,0,VALID,94.0272,VALID,0,VALID,17.8326,VALID,350,VALID,0,
2013-07-20, 00:40:04,VALID,917.911,VALID,0,VALID,94.3017,VALID,0,VALID,17.8313,VALID,350,VALID,0,
2013-07-20, 00:41:04,VALID,917.913,VALID,0,VALID,94.5761,VALID,0,VALID,17.8716,VALID,350,VALID,0,
2013-07-20, 00:42:04,VALID,917.914,VALID,0,VALID,94.3779,VALID,0,VALID,17.7936,VALID,350,VALID,0,
2013-07-20, 00:43:04,VALID,917.898,VALID,0,VALID,94.3398,VALID,0,VALID,17.756,VALID,350,VALID,0,
2013-07-20, 00:44:04,VALID,917.893,VALID,0,VALID,94.6905,VALID,0,VALID,17.7936,VALID,350,VALID,0,
2013-07-20, 00:45:04,VALID,917.877,VALID,0,VALID,94.9878,VALID,0,VALID,17.8326,VALID,350,VALID,0,
2013-07-20, 00:46:04,VALID,917.864,VALID,0,VALID,95.2393,VALID,0,VALID,17.8521,VALID,350,VALID,0,
2013-07-20, 00:47:04,VALID,917.836,VALID,0,VALID,94.8582,VALID,0,VALID,17.8326,VALID,350,VALID,0,
2013-07-20, 00:48:04,VALID,917.877,VALID,0,VALID,95.3308,VALID,0,VALID,17.8326,VALID,350,VALID,0,
2013-07-20, 00:49:04,VALID,917.853,VALID,0,VALID,95.5748,VALID,0,VALID,17.9301,VALID,350,VALID,0,
2013-07-20, 00:50:04,VALID,917.864,VALID,0,VALID,95.7272,VALID,0,VALID,17.9886,VALID,350,VALID,0,
2013-07-20, 00:51:04,VALID,917.853,VALID,0,VALID,95.7958,VALID,0,VALID,18.047,VALID,350,VALID,0,
2013-07-20, 00:52:04,VALID,917.86,VALID,0,VALID,95.8035,VALID,0,VALID,18.086,VALID,350,VALID,0,
2013-07-20, 00:53:04,VALID,917.851,VALID,0,VALID,95.773,VALID,0,VALID,18.125,VALID,350,VALID,0,
2013-07-20, 00:54:04,VALID,917.846,VALID,0,VALID,95.6434,VALID,0,VALID,18.1055,VALID,350,VALID,0,
2013-07-20, 00:55:04,VALID,917.814,VALID,0,VALID,95.5519,VALID,0,VALID,18.1055,VALID,350,VALID,0,
2013-07-20, 00:56:04,VALID,917.798,VALID,0,VALID,95.468,VALID,0,VALID,18.1055,VALID,350,VALID,0,
2013-07-20, 00:57:04,VALID,917.79,VALID,0,VALID,95.4223,VALID,0,VALID,18.1055,VALID,350,VALID,0,
2013-07-20, 00:58:04,VALID,917.766,VALID,0,VALID,95.5443,VALID,0,VALID,18.1835,VALID,350,VALID,0,
2013-07-20, 00:59:04,VALID,917.752,VALID,0,VALID,95.5138,VALID,0,VALID,18.2044,VALID,350,VALID,0,
2013-07-20, 01:00:04,VALID,917.741,VALID,0,VALID,95.5214,VALID,0,VALID,18.2628,VALID,350,VALID,0,
2013-07-20, 01:01:04,VALID,917.738,VALID,0,VALID,95.5443,VALID,0,VALID,18.3004,VALID,350,VALID,0,
2013-07-20, 01:02:04,VALID,917.757,VALID,0,VALID,95.1174,VALID,0,VALID,18.2809,VALID,350,VALID,0,
2013-07-20, 01:03:04,VALID,917.773,VALID,0,VALID,94.8582,VALID,0,VALID,18.242,VALID,350,VALID,0,
2013-07-20, 01:04:04,VALID,917.762,VALID,0,VALID,95.003,VALID,0,VALID,18.2615,VALID,350,VALID,0,
2013-07-20, 01:05:04,VALID,917.777,VALID,0,VALID,95.2698,VALID,0.107441,VALID,18.3199,VALID,350,VALID,0,
2013-07-20, 01:06:04,VALID,917.74,VALID,0,VALID,95.2927,VALID,0,VALID,18.4174,VALID,350,VALID,0,
2013-07-20, 01:07:04,VALID,917.737,VALID,0,VALID,95.1326,VALID,0,VALID,18.4759,VALID,350,VALID,0,
2013-07-20, 01:08:04,VALID,917.736,VALID,0,VALID,94.477,VALID,0,VALID,18.4174,VALID,350,VALID,0,
2013-07-20, 01:09:04,VALID,917.713,VALID,0,VALID,94.2102,VALID,0,VALID,18.3589,VALID,350,VALID,0,
2013-07-20, 01:10:04,VALID,917.703,VALID,0,VALID,93.8747,VALID,0,VALID,18.299,VALID,350,VALID,0,
2013-07-20, 01:11:04,VALID,917.717,VALID,0,VALID,93.6537,VALID,0,VALID,18.2615,VALID,350,VALID,0,
2013-07-20, 01:12:04,VALID,917.719,VALID,0,VALID,92.8989,VALID,0,VALID,18.125,VALID,350,VALID,0,
2013-07-20, 01:13:04,VALID,917.736,VALID,0,VALID,93.0972,VALID,0,VALID,18.086,VALID,350,VALID,0,
2013-07-20, 01:14:04,VALID,917.747,VALID,0,VALID,93.3106,VALID,0,VALID,18.008,VALID,181,VALID,0,
2013-07-20, 01:15:04,VALID,917.715,VALID,0,VALID,93.7909,VALID,0,VALID,17.9886,VALID,181,VALID,0,
2013-07-20, 01:16:04,VALID,917.711,VALID,0,VALID,94.4236,VALID,0,VALID,18.086,VALID,181,VALID,0,
2013-07-20, 01:17:04,VALID,917.7,VALID,0,VALID,94.4694,VALID,0,VALID,18.0275,VALID,181,VALID,0,
2013-07-20, 01:18:04,VALID,917.692,VALID,0,VALID,94.5532,VALID,0,VALID,17.9886,VALID,149,VALID,0,
2013-07-20, 01:19:04,VALID,917.682,VALID,0,VALID,94.6142,VALID,0,VALID,17.9677,VALID,146,VALID,0,
2013-07-20, 01:20:04,VALID,917.675,VALID,0,VALID,94.6218,VALID,0,VALID,17.9496,VALID,146,VALID,0,
2013-07-20, 01:21:04,VALID,917.662,VALID,0,VALID,94.4617,VALID,0,VALID,17.9314,VALID,146,VALID,0,
2013-07-20, 01:22:04,VALID,917.651,VALID,0,VALID,94.5151,VALID,0,VALID,17.8118,VALID,146,VALID,0,
2013-07-20, 01:23:04,VALID,917.655,VALID,0,VALID,94.7743,VALID,0,VALID,17.8521,VALID,146,VALID,0,
2013-07-20, 01:24:04,VALID,917.659,VALID,0,VALID,94.9496,VALID,0,VALID,17.8911,VALID,146,VALID,0,
2013-07-20, 01:25:04,VALID,917.651,VALID,0,VALID,95.0564,VALID,0,VALID,17.9106,VALID,146,VALID,0,
2013-07-20, 01:26:04,VALID,917.632,VALID,0,VALID,95.0259,VALID,0,VALID,17.9106,VALID,150,VALID,0,
2013-07-20, 01:27:04,VALID,917.594,VALID,0,VALID,95.2241,VALID,0,VALID,17.9106,VALID,150,VALID,0,
2013-07-20, 01:28:04,VALID,917.58,VALID,0,VALID,95.1631,VALID,0,VALID,17.9106,VALID,150,VALID,0,
2013-07-20, 01:29:04,VALID,917.579,VALID,0,VALID,95.3003,VALID,0,VALID,17.9509,VALID,150,VALID,0,
2013-07-20, 01:30:04,VALID,917.563,VALID,0,VALID,95.4071,VALID,0,VALID,17.9886,VALID,150,VALID,0,
2013-07-20, 01:31:04,VALID,917.546,VALID,0,VALID,95.5443,VALID,0,VALID,18.0665,VALID,150,VALID,0,
2013-07-20, 01:32:04,VALID,917.589,VALID,0,VALID,95.4147,VALID,0,VALID,18.0665,VALID,150,VALID,0,
2013-07-20, 01:33:04,VALID,917.571,VALID,0,VALID,95.4375,VALID,0,VALID,18.086,VALID,150,VALID,0,
2013-07-20, 01:34:04,VALID,917.578,VALID,0,VALID,95.4147,VALID,0,VALID,18.1445,VALID,150,VALID,0,
2013-07-20, 01:35:04,VALID,917.572,VALID,0,VALID,95.247,VALID,0,VALID,18.125,VALID,150,VALID,0,
2013-07-20, 01:36:04,VALID,917.585,VALID,0,VALID,95.2698,VALID,0,VALID,18.125,VALID,150,VALID,0,
2013-07-20, 01:37:04,VALID,917.516,VALID,0,VALID,95.1097,VALID,0,VALID,18.0874,VALID,150,VALID,0,
2013-07-20, 01:38:04,VALID,917.51,VALID,0,VALID,95.4452,VALID,0,VALID,18.242,VALID,150,VALID,0,
2013-07-20, 01:39:04,VALID,917.491,VALID,0,VALID,94.9573,VALID,0,VALID,18.2433,VALID,150,VALID,0,
2013-07-20, 01:40:04,VALID,917.453,VALID,0,VALID,95.1936,VALID,0,VALID,18.2615,VALID,146,VALID,0,
2013-07-20, 01:41:04,VALID,917.465,VALID,0,VALID,95.0716,VALID,0,VALID,18.2809,VALID,146,VALID,0,
2013-07-20, 01:42:04,VALID,917.471,VALID,0,VALID,94.881,VALID,0,VALID,18.2615,VALID,146,VALID,0,
2013-07-20, 01:43:05,VALID,917.483,VALID,0,VALID,94.7972,VALID,0,VALID,18.2823,VALID,146,VALID,0,
2013-07-20, 01:44:05,VALID,917.481,VALID,0,VALID,94.7667,VALID,0,VALID,18.2809,VALID,146,VALID,0,
2013-07-20, 01:45:05,VALID,917.472,VALID,0,VALID,94.5837,VALID,0,VALID,18.242,VALID,146,VALID,0,
2013-07-20, 01:46:05,VALID,917.439,VALID,0,VALID,94.4694,VALID,0,VALID,18.1835,VALID,146,VALID,0,
2013-07-20, 01:47:05,VALID,917.468,VALID,0,VALID,94.5532,VALID,0,VALID,18.1835,VALID,146,VALID,0,
2013-07-20, 01:48:05,VALID,917.468,VALID,0,VALID,94.2712,VALID,0,VALID,18.1459,VALID,146,VALID,0,
2013-07-20, 01:49:05,VALID,917.436,VALID,0,VALID,94.0272,VALID,0,VALID,18.0275,VALID,146,VALID,0,
2013-07-20, 01:50:05,VALID,917.452,VALID,0,VALID,93.9891,VALID,0.107441,VALID,17.9496,VALID,146,VALID,0,
2013-07-20, 01:51:05,VALID,917.422,VALID,0,VALID,94.233,VALID,0,VALID,17.9314,VALID,146,VALID,0,
2013-07-20, 01:52:05,VALID,917.41,VALID,0,VALID,94.6447,VALID,0,VALID,17.9496,VALID,146,VALID,0,
2013-07-20, 01:53:05,VALID,917.396,VALID,0,VALID,94.6676,VALID,0,VALID,17.9301,VALID,146,VALID,0,
2013-07-20, 01:54:05,VALID,917.394,VALID,0,VALID,94.4008,VALID,0,VALID,17.8521,VALID,146,VALID,0,
2013-07-20, 01:55:05,VALID,917.392,VALID,0,VALID,94.7209,VALID,0,VALID,17.8326,VALID,146,VALID,0,
2013-07-20, 01:56:05,VALID,917.389,VALID,0,VALID,95.2622,VALID,0,VALID,17.9886,VALID,146,VALID,0,
2013-07-20, 01:57:05,VALID,917.418,VALID,0,VALID,95.4071,VALID,0,VALID,18.125,VALID,146,VALID,0,
2013-07-20, 01:58:05,VALID,917.402,VALID,0,VALID,95.2622,VALID,0,VALID,18.1835,VALID,146,VALID,0,
2013-07-20, 01:59:05,VALID,917.4,VALID,0,VALID,95.2165,VALID,0,VALID,18.2628,VALID,146,VALID,0,
2013-07-20, 02:00:05,VALID,917.353,VALID,0,VALID,94.9039,VALID,0,VALID,18.2809,VALID,146,VALID,0,
2013-07-20, 02:01:05,VALID,917.327,VALID,0,VALID,94.599,VALID,0,VALID,18.242,VALID,146,VALID,0,
2013-07-20, 02:02:05,VALID,917.332,VALID,0,VALID,94.2483,VALID,0,VALID,18.1835,VALID,146,VALID,0,
2013-07-20, 02:03:05,VALID,917.307,VALID,0,VALID,94.4541,VALID,0,VALID,18.1835,VALID,146,VALID,0,
2013-07-20, 02:04:05,VALID,917.302,VALID,0,VALID,94.5151,VALID,0.107441,VALID,18.1835,VALID,146,VALID,0,
2013-07-20, 02:05:05,VALID,917.32,VALID,0,VALID,94.4236,VALID,0,VALID,18.1849,VALID,146,VALID,0,
2013-07-20, 02:06:05,VALID,917.349,VALID,0,VALID,94.477,VALID,0,VALID,18.1445,VALID,146,VALID,0,
2013-07-20, 02:07:05,VALID,917.323,VALID,0,VALID,94.4389,VALID,0,VALID,18.1654,VALID,146,VALID,0,
2013-07-20, 02:08:05,VALID,917.349,VALID,0,VALID,94.3931,VALID,0,VALID,18.1055,VALID,146,VALID,0,
2013-07-20, 02:09:05,VALID,917.28,VALID,0,VALID,94.3398,VALID,0,VALID,18.047,VALID,146,VALID,0,
2013-07-20, 02:10:05,VALID,917.244,VALID,0,VALID,94.294,VALID,0,VALID,18.0289,VALID,146,VALID,0,
2013-07-20, 02:11:05,VALID,917.222,VALID,0,VALID,94.3626,VALID,0,VALID,18.0094,VALID,146,VALID,0,
2013-07-20, 02:12:05,VALID,917.202,VALID,0,VALID,94.4617,VALID,0,VALID,17.9496,VALID,127,VALID,0,
2013-07-20, 02:13:05,VALID,917.19,VALID,0,VALID,94.6066,VALID,0,VALID,17.9509,VALID,127,VALID,0,
2013-07-20, 02:14:05,VALID,917.193,VALID,0,VALID,94.6981,VALID,0,VALID,17.9704,VALID,127,VALID,0,
2013-07-20, 02:15:05,VALID,917.202,VALID,0,VALID,94.7286,VALID,0,VALID,17.9496,VALID,127,VALID,0,
2013-07-20, 02:16:05,VALID,917.167,VALID,0,VALID,94.8124,VALID,0,VALID,17.9899,VALID,127,VALID,0,
2013-07-20, 02:17:05,VALID,917.133,VALID,0,VALID,94.8353,VALID,0,VALID,17.9886,VALID,127,VALID,0,
2013-07-20, 02:18:05,VALID,917.15,VALID,0,VALID,95.0716,VALID,0,VALID,18.086,VALID,127,VALID,0,
2013-07-20, 02:19:05,VALID,917.104,VALID,0,VALID,94.6523,VALID,0,VALID,18.0665,VALID,127,VALID,0,
2013-07-20, 02:20:05,VALID,917.147,VALID,0,VALID,94.5075,VALID,0,VALID,18.0275,VALID,127,VALID,0,
2013-07-20, 02:21:05,VALID,917.129,VALID,0,VALID,94.2178,VALID,0,VALID,17.9301,VALID,134,VALID,0,
2013-07-20, 02:22:05,VALID,917.134,VALID,0,VALID,94.3931,VALID,0,VALID,17.9509,VALID,141,VALID,0,
2013-07-20, 02:23:05,VALID,917.168,VALID,0,VALID,94.3017,VALID,0,VALID,17.8911,VALID,143,VALID,0,
2013-07-20, 02:24:05,VALID,917.158,VALID,0,VALID,94.2712,VALID,0,VALID,17.8326,VALID,143,VALID,0,
2013-07-20, 02:25:05,VALID,917.149,VALID,0,VALID,94.4541,VALID,0,VALID,17.8131,VALID,138,VALID,0,
2013-07-20, 02:26:05,VALID,917.111,VALID,0,VALID,94.5913,VALID,0,VALID,17.7755,VALID,133,VALID,0,
2013-07-20, 02:27:05,VALID,917.084,VALID,0,VALID,94.8887,VALID,0,VALID,17.7755,VALID,134,VALID,0,
2013-07-20, 02:28:05,VALID,917.063,VALID,0,VALID,95.1097,VALID,0,VALID,17.7741,VALID,124,VALID,0,
2013-07-20, 02:29:05,VALID,917.047,VALID,0,VALID,95.2317,VALID,0,VALID,17.7936,VALID,124,VALID,0,
2013-07-20, 02:30:05,VALID,917.044,VALID,0,VALID,95.3003,VALID,0,VALID,17.7936,VALID,123,VALID,0,
2013-07-20, 02:31:05,VALID,917.052,VALID,0,VALID,95.4071,VALID,0,VALID,17.8131,VALID,123,VALID,0,
2013-07-20, 02:32:05,VALID,917.066,VALID,0,VALID,95.4757,VALID,0,VALID,17.8535,VALID,124,VALID,0,
2013-07-20, 02:33:05,VALID,917.048,VALID,0,VALID,95.5443,VALID,0,VALID,17.873,VALID,124,VALID,0,
2013-07-20, 02:34:05,VALID,917.059,VALID,0,VALID,95.5595,VALID,0,VALID,17.873,VALID,124,VALID,0,
2013-07-20, 02:35:05,VALID,917.061,VALID,0,VALID,95.5443,VALID,0,VALID,17.8326,VALID,124,VALID,0,
2013-07-20, 02:36:05,VALID,917.062,VALID,0,VALID,95.5595,VALID,0,VALID,17.8716,VALID,124,VALID,0,
2013-07-20, 02:37:05,VALID,917.014,VALID,0,VALID,95.59,VALID,0,VALID,17.8521,VALID,124,VALID,0,
2013-07-20, 02:38:05,VALID,916.998,VALID,0,VALID,95.5748,VALID,0,VALID,17.8326,VALID,124,VALID,0,
2013-07-20, 02:39:05,VALID,916.983,VALID,0,VALID,95.59,VALID,0,VALID,17.8131,VALID,124,VALID,0,
2013-07-20, 02:40:05,VALID,916.978,VALID,0,VALID,95.6357,VALID,0,VALID,17.8521,VALID,124,VALID,0,
2013-07-20, 02:41:05,VALID,916.98,VALID,0,VALID,95.6967,VALID,0,VALID,17.8925,VALID,124,VALID,0,
2013-07-20, 02:42:05,VALID,916.962,VALID,0,VALID,95.773,VALID,0,VALID,17.8716,VALID,124,VALID,0,
2013-07-20, 02:43:05,VALID,916.982,VALID,0,VALID,95.7501,VALID,0,VALID,17.8911,VALID,124,VALID,0,
2013-07-20, 02:44:05,VALID,916.982,VALID,0,VALID,95.7882,VALID,0,VALID,17.9314,VALID,124,VALID,0,
2013-07-20, 02:45:05,VALID,916.95,VALID,0,VALID,95.834,VALID,0,VALID,17.9106,VALID,124,VALID,0,
2013-07-20, 02:46:05,VALID,916.944,VALID,0,VALID,95.7577,VALID,0,VALID,17.8716,VALID,124,VALID,0,
2013-07-20, 02:47:05,VALID,916.924,VALID,0,VALID,95.7425,VALID,0,VALID,17.8716,VALID,124,VALID,0,
2013-07-20, 02:48:05,VALID,916.929,VALID,0,VALID,95.7501,VALID,0,VALID,17.8326,VALID,124,VALID,0,
2013-07-20, 02:49:05,VALID,916.908,VALID,0,VALID,95.7272,VALID,0,VALID,17.834,VALID,124,VALID,0,
2013-07-20, 02:50:05,VALID,916.905,VALID,0,VALID,95.6586,VALID,0,VALID,17.7741,VALID,124,VALID,0,
2013-07-20, 02:51:05,VALID,916.861,VALID,0,VALID,95.6891,VALID,0,VALID,17.7741,VALID,124,VALID,0,
2013-07-20, 02:52:05,VALID,916.839,VALID,0,VALID,95.6815,VALID,0,VALID,17.7365,VALID,124,VALID,0,
2013-07-20, 02:53:05,VALID,916.839,VALID,0,VALID,95.712,VALID,0,VALID,17.756,VALID,124,VALID,0,
2013-07-20, 02:54:05,VALID,916.826,VALID,0,VALID,95.7882,VALID,0,VALID,17.756,VALID,124,VALID,0,
2013-07-20, 02:55:05,VALID,916.823,VALID,0,VALID,95.7958,VALID,0,VALID,17.7352,VALID,124,VALID,0,
2013-07-20, 02:56:05,VALID,916.859,VALID,0,VALID,95.7044,VALID,0,VALID,17.678,VALID,124,VALID,0,
2013-07-20, 02:57:05,VALID,916.813,VALID,0,VALID,95.6129,VALID,0,VALID,17.5987,VALID,124,VALID,0,
2013-07-20, 02:58:05,VALID,916.815,VALID,0,VALID,95.5519,VALID,0,VALID,17.5598,VALID,124,VALID,0,
2013-07-20, 02:59:05,VALID,916.762,VALID,0,VALID,95.59,VALID,0,VALID,17.6001,VALID,124,VALID,0,
2013-07-20, 03:00:05,VALID,916.752,VALID,0,VALID,95.6815,VALID,0,VALID,17.5987,VALID,124,VALID,0,
2013-07-20, 03:01:05,VALID,916.751,VALID,0,VALID,95.8187,VALID,0,VALID,17.6182,VALID,124,VALID,0,
2013-07-20, 03:02:05,VALID,916.767,VALID,0,VALID,95.8416,VALID,0,VALID,17.6182,VALID,124,VALID,0,
2013-07-20, 03:03:05,VALID,916.766,VALID,0,VALID,95.9331,VALID,0,VALID,17.6585,VALID,124,VALID,0,
2013-07-20, 03:04:05,VALID,916.759,VALID,0,VALID,95.9864,VALID,0,VALID,17.678,VALID,124,VALID,0,
2013-07-20, 03:05:05,VALID,916.743,VALID,0,VALID,96.0169,VALID,0,VALID,17.6377,VALID,124,VALID,0,
2013-07-20, 03:06:05,VALID,916.733,VALID,0,VALID,96.116,VALID,0,VALID,17.6962,VALID,124,VALID,0,
2013-07-20, 03:07:05,VALID,916.723,VALID,0,VALID,96.177,VALID,0,VALID,17.7352,VALID,124,VALID,0,
2013-07-20, 03:08:05,VALID,916.692,VALID,0,VALID,96.1999,VALID,0,VALID,17.7741,VALID,124,VALID,0,
2013-07-20, 03:09:05,VALID,916.659,VALID,0,VALID,96.0703,VALID,0,VALID,17.6572,VALID,124,VALID,0,
2013-07-20, 03:10:05,VALID,916.661,VALID,0,VALID,95.9254,VALID,0,VALID,17.5806,VALID,124,VALID,0,
2013-07-20, 03:11:05,VALID,916.651,VALID,0,VALID,95.9026,VALID,0,VALID,17.5806,VALID,124,VALID,0,
2013-07-20, 03:12:05,VALID,916.657,VALID,0,VALID,95.773,VALID,0,VALID,17.4428,VALID,124,VALID,0,
2013-07-20, 03:13:05,VALID,916.643,VALID,0,VALID,95.773,VALID,0,VALID,17.3844,VALID,124,VALID,0,
2013-07-20, 03:14:05,VALID,916.63,VALID,0,VALID,95.7501,VALID,0,VALID,17.3649,VALID,124,VALID,0,
2013-07-20, 03:15:05,VALID,916.648,VALID,0,VALID,95.773,VALID,0,VALID,17.3844,VALID,124,VALID,0,
2013-07-20, 03:16:05,VALID,916.625,VALID,0,VALID,95.8797,VALID,0,VALID,17.4441,VALID,124,VALID,0,
2013-07-20, 03:17:05,VALID,916.619,VALID,0,VALID,95.9407,VALID,0,VALID,17.4247,VALID,124,VALID,0,
2013-07-20, 03:18:05,VALID,916.582,VALID,0,VALID,96.0093,VALID,0,VALID,17.4623,VALID,124,VALID,0,
2013-07-20, 03:19:05,VALID,916.58,VALID,0,VALID,96.0474,VALID,0,VALID,17.4831,VALID,124,VALID,0,
2013-07-20, 03:20:05,VALID,916.574,VALID,0,VALID,96.1236,VALID,0,VALID,17.5416,VALID,124,VALID,0,
2013-07-20, 03:21:05,VALID,916.562,VALID,0,VALID,96.1923,VALID,0,VALID,17.5806,VALID,124,VALID,0,
2013-07-20, 03:22:05,VALID,916.603,VALID,0,VALID,96.2151,VALID,0,VALID,17.5806,VALID,124,VALID,0,
2013-07-20, 03:23:05,VALID,916.595,VALID,0,VALID,96.1389,VALID,0,VALID,17.4428,VALID,124,VALID,0,
2013-07-20, 03:24:05,VALID,916.601,VALID,0,VALID,96.0627,VALID,0,VALID,17.3844,VALID,124,VALID,0,
2013-07-20, 03:25:05,VALID,916.602,VALID,0,VALID,96.1236,VALID,0,VALID,17.4441,VALID,124,VALID,0,
2013-07-20, 03:26:05,VALID,916.616,VALID,0,VALID,96.2304,VALID,0,VALID,17.5013,VALID,124,VALID,0,
2013-07-20, 03:27:05,VALID,916.582,VALID,0,VALID,96.3219,VALID,0,VALID,17.5806,VALID,124,VALID,0,
2013-07-20, 03:28:05,VALID,916.577,VALID,0,VALID,96.3219,VALID,0,VALID,17.5987,VALID,124,VALID,0,
2013-07-20, 03:29:05,VALID,916.586,VALID,0,VALID,96.2837,VALID,0,VALID,17.6196,VALID,124,VALID,0,
2013-07-20, 03:30:05,VALID,916.589,VALID,0,VALID,96.2304,VALID,0,VALID,17.6196,VALID,124,VALID,0,
2013-07-20, 03:31:05,VALID,916.585,VALID,0,VALID,96.2075,VALID,0,VALID,17.6001,VALID,124,VALID,0,
2013-07-20, 03:32:05,VALID,916.559,VALID,0,VALID,96.1618,VALID,0,VALID,17.6182,VALID,124,VALID,0,
2013-07-20, 03:33:05,VALID,916.536,VALID,0,VALID,96.1313,VALID,0,VALID,17.6182,VALID,124,VALID,0,
2013-07-20, 03:34:05,VALID,916.51,VALID,0,VALID,96.0398,VALID,0,VALID,17.5792,VALID,124,VALID,0,
2013-07-20, 03:35:05,VALID,916.498,VALID,0,VALID,95.9864,VALID,0,VALID,17.5598,VALID,124,VALID,0,
2013-07-20, 03:36:05,VALID,916.493,VALID,0,VALID,95.9712,VALID,0,VALID,17.5806,VALID,137,VALID,0,
2013-07-20, 03:37:05,VALID,916.493,VALID,0,VALID,96.0169,VALID,0,VALID,17.5598,VALID,138,VALID,0,
2013-07-20, 03:38:05,VALID,916.525,VALID,0,VALID,95.9636,VALID,0,VALID,17.5611,VALID,139,VALID,0,
2013-07-20, 03:39:05,VALID,916.5,VALID,0,VALID,95.9178,VALID,0,VALID,17.5416,VALID,135,VALID,0,
2013-07-20, 03:40:05,VALID,916.502,VALID,0,VALID,95.9178,VALID,0,VALID,17.5611,VALID,135,VALID,0,
2013-07-20, 03:41:05,VALID,916.5,VALID,0,VALID,95.9331,VALID,0,VALID,17.5806,VALID,135,VALID,0,
2013-07-20, 03:42:05,VALID,916.497,VALID,0,VALID,95.9102,VALID,0,VALID,17.5598,VALID,135,VALID,0,
2013-07-20, 03:43:05,VALID,916.469,VALID,0,VALID,95.8797,VALID,0,VALID,17.5208,VALID,135,VALID,0,
2013-07-20, 03:44:05,VALID,916.423,VALID,0,VALID,95.8721,VALID,0.107441,VALID,17.5416,VALID,135,VALID,0,
2013-07-20, 03:45:05,VALID,916.427,VALID,0,VALID,95.8873,VALID,0,VALID,17.5403,VALID,135,VALID,0,
2013-07-20, 03:46:05,VALID,916.417,VALID,0,VALID,95.9102,VALID,0,VALID,17.5416,VALID,135,VALID,0,
2013-07-20, 03:47:05,VALID,916.408,VALID,0,VALID,95.8645,VALID,0,VALID,17.4818,VALID,135,VALID,0,
2013-07-20, 03:48:05,VALID,916.419,VALID,0,VALID,95.8568,VALID,0,VALID,17.5026,VALID,135,VALID,0,
2013-07-20, 03:49:05,VALID,916.399,VALID,0,VALID,95.8873,VALID,0,VALID,17.5026,VALID,135,VALID,0,
2013-07-20, 03:50:05,VALID,916.384,VALID,0,VALID,95.9407,VALID,0,VALID,17.5221,VALID,135,VALID,0,
2013-07-20, 03:51:05,VALID,916.409,VALID,0,VALID,95.9636,VALID,0,VALID,17.5026,VALID,135,VALID,0,
2013-07-20, 03:52:05,VALID,916.401,VALID,0,VALID,95.895,VALID,0,VALID,17.4428,VALID,135,VALID,0,
2013-07-20, 03:53:05,VALID,916.426,VALID,0,VALID,95.8492,VALID,0,VALID,17.4038,VALID,135,VALID,0,
2013-07-20, 03:54:05,VALID,916.407,VALID,0,VALID,95.8187,VALID,0,VALID,17.4247,VALID,135,VALID,0,
2013-07-20, 03:55:05,VALID,916.404,VALID,0,VALID,95.8111,VALID,0,VALID,17.3649,VALID,135,VALID,0,
2013-07-20, 03:56:05,VALID,916.416,VALID,0,VALID,95.8721,VALID,0,VALID,17.4052,VALID,135,VALID,0,
2013-07-20, 03:57:05,VALID,916.422,VALID,0,VALID,95.9026,VALID,0,VALID,17.3649,VALID,135,VALID,0,
2013-07-20, 03:58:05,VALID,916.424,VALID,0,VALID,95.895,VALID,0,VALID,17.3259,VALID,135,VALID,0,
2013-07-20, 03:59:05,VALID,916.403,VALID,0,VALID,95.9178,VALID,0,VALID,17.3064,VALID,135,VALID,0,
2013-07-20, 04:00:05,VALID,916.401,VALID,0,VALID,95.9941,VALID,0,VALID,17.3467,VALID,135,VALID,0,